Other Public Products
Issued by NWS Grand Forks, ND

Home | Current Version | Previous Version | Text Only | Print | Product List | Glossary Off
Versions: 1 2 3 4 5 6 7 8 9 10 11 12 13 14 15 16 17 18 19 20 21 22 23 24 25 26 27 28 29 30 31 32 33 34 35 36 37 38 39 40 41 42 43 44 45 46 47 48 49 50

000
FPUS83 KFGF 221810
OPUFGF
PRAIRIE TO PINES WEATHER ROUNDUP
NATIONAL WEATHER SERVICE EASTERN NORTH DAKOTA/GRAND FORKS ND
1200 PM CST MON DEC 22 2014

 **SATELLITE DATA USED TO AUGMENT SKY COVER AT AUTOMATED STATIONS**
 *****  WEATHER ACROSS EASTERN NORTH DAKOTA  *****

CITY           SKY/WX    TMP DP  RH WIND       PRES   REMARKS
GRAND FORKS    DRIZZLE   36  36 100 E8        29.53F FOG
6HR MIN TEMP:  34; 6HR MAX TEMP:  36; 6HR PCP:  0.01;

GRAND FORKS AF NOT AVBL
GRAND CITY NWS NOT AVBL
BUXTON         NOT AVBL
DEVILS LAKE    CLOUDY    34  32  93 NE8       29.51R
6HR MIN TEMP:  30; 6HR MAX TEMP:  41;

FARGO          LGT RAIN  40  38  93 SE9       29.50S FOG
6HR MIN TEMP:  37; 6HR MAX TEMP:  40; 6HR PCP:  0.02;

WAHPETON ARPT  CLOUDY    36  34  93 SE8       29.49F
$$

 *****  WEATHER ACROSS CENTRAL AND WESTERN NORTH DAKOTA  *****

CITY           SKY/WX    TMP DP  RH WIND       PRES   REMARKS
JAMESTOWN      FOG       33  32  96 NE7       29.46S VSB 1/4
6HR MIN TEMP:  32; 6HR MAX TEMP:  33;

BISMARCK       CLOUDY    29  27  92 N6        29.50S WCI  23
6HR MIN TEMP:  28; 6HR MAX TEMP:  29;

MINOT          CLOUDY    29  26  89 N8        29.55R WCI  21
6HR MIN TEMP:  28; 6HR MAX TEMP:  29;

MINOT AFB      NOT AVBL
GARRISON         N/A     30  28  92 N6        29.52S WCI  24
6HR MIN TEMP:  28; 6HR MAX TEMP:  30;

WILLISTON      CLOUDY    26  22  84 N16       29.61R WCI  14
6HR MIN TEMP:  26; 6HR MAX TEMP:  29;

DICKINSON      SNOW      27  23  85 NW18      29.51R VSB 1/2 WCI  14
6HR MIN TEMP:  26; 6HR MAX TEMP:  32; 6HR PCP: TRACE;

HETTINGER      LGT SNOW  28  24  85 NW24G33   29.52R VSB 3/4 WCI  14
6HR MIN TEMP:  28; 6HR MAX TEMP:  34; 6HR PCP: TRACE;

$$

 *****  OTHER OBSERVATIONS NORTHEAST NORTH DAKOTA  *****

CITY           SKY/WX    TMP DP  RH WIND       PRES   REMARKS
WALHALLA       NOT AVBL
LANGDON          N/A    N/A N/A N/A NE9       29.54S
CAVALIER       FOG       34  34 100 E8        29.58  VSB 1
GRAFTON        NOT AVBL
CANDO          CLOUDY    32  32 100 NE7       29.55S FOG
FORT TOTTEN      N/A     32  32 100 CALM      29.95S
ROLLA          CLOUDY    30  30 100 N9        29.56S FOG     WCI  22
RUGBY          MOCLDY    32  32 100 NE8       29.54S FOG     WCI  25
 ***** THE ABOVE OBSERVATIONS ARE NON NWS ARE NOT QUALITY
        CONTROLLED AND MAY MIS-REPORT RAIN FOR SNOW...
$$

 *****  OTHER OBSERVATIONS SOUTHEAST NORTH DAKOTA *****

CITY           SKY/WX    TMP DP  RH WIND       PRES   REMARKS
COOPERSTOWN    NOT AVBL
VALLEY CITY    LGT RAIN  32  32 100 NE5       29.47S VSB<1/4
OAKES            N/A     36  36 100 E9        29.44S FOG
GWINNER        CLOUDY    37  37 100 SE10      29.46S
BUFFALO        NOT AVBL
WYNDMERE         N/A     37  39 100 SE10        N/A
 ***** THE ABOVE OBSERVATIONS ARE NON NWS ARE NOT QUALITY
       CONTROLLED AND MAY MIS-REPORT RAIN FOR SNOW...
$$

  *****  WEATHER ACROSS NORTHERN MINNESOTA  *****

CITY           SKY/WX    TMP DP  RH WIND       PRES   REMARKS
FLAG ISLAND    CLOUDY    34  34 100 E7        29.62S
WARROAD        CLOUDY    34  30  86 E7        29.61S FOG
ROSEAU         CLOUDY    36  30  80 E7        29.59F
HALLOCK        CLOUDY    36  34  93 E8        29.58S FOG
THF RVR FALLS  CLOUDY    36  34  93 E10       29.55S
6HR MIN TEMP:  34; 6HR MAX TEMP:  36;

HALSTAD          N/A     38  37  99 SE10        N/A
FOSSTON        RAIN      34  34 100 E7        29.55S
BAUDETTE       CLOUDY    34  33  96 SE8       29.61S
6HR MIN TEMP:  33; 6HR MAX TEMP:  35;

WASKISH        CLOUDY    36  36 100 SE7G16    29.60F
CROOKSTON      CLOUDY    37  36  93 SE10      29.55S
$$
  *****  WEATHER ACROSS CENTRAL AND WEST MINNESOTA  *****

CITY           SKY/WX    TMP DP  RH WIND       PRES   REMARKS
BEMIDJI        CLOUDY    35  34  98 SE7       29.57S FOG
PARK RAPIDS    CLOUDY    37  35  92 SE12      29.55S FOG
6HR MIN TEMP:  36; 6HR MAX TEMP:  37;

WADENA         CLOUDY    36  34  93 SE13      29.54S FOG
DETROIT LAKES  CLOUDY    36  36 100 SE12      29.53S FOG
MOORHEAD       RAIN      39  39 100 SE9       29.51S
FERGUS FALLS   CLOUDY    37  37 100 SE12      29.53S FOG
ELBOW LAKE     CLOUDY    37  37 100 SE10G17   29.49F FOG
6HR MIN TEMP:  35; 6HR MAX TEMP:  37;

MORRIS MN      DRIZZLE   37  37 100 SE16G22   29.48F
STAPLES        LGT RAIN  36  36 100 SE5       29.56F
WHEATON        LGT RAIN  36  36 100 SE16      29.48F
$$
  *****  WEATHER ELSEWHERE ACROSS MINNESOTA  *****

CITY           SKY/WX    TMP DP  RH WIND       PRES   REMARKS
DULUTH         SNOW      33  32  96 SE13      29.66F VSB 1/4 WCI  24
6HR MIN TEMP:  33; 6HR MAX TEMP:  34; 6HR PCP:  0.07;

INTRNTL FALLS  LGT RAIN  34  32  92 SE7       29.64F
6HR MIN TEMP:  33; 6HR MAX TEMP:  34; 6HR PCP:  0.04;

ELY            CLOUDY    34  32  93 SE7       29.68F
CLOQUET        MIX PCPN  34  34 100 SE7       29.66F VSB 3/4
BRAINERD       LGT RAIN  35  34  96 SE9       29.59F FOG
6HR MIN TEMP:  35; 6HR MAX TEMP:  36; 6HR PCP: TRACE;

HIBBING        LGT SNOW  34  32  92 SE8       29.64F FOG
6HR MIN TEMP:  34; 6HR MAX TEMP:  35; 6HR PCP:  0.04;

ALEXANDRIA     CLOUDY    36  35  96 SE14      29.52F FOG
6HR MIN TEMP:  36; 6HR MAX TEMP:  37;

SAINT CLOUD    LGT RAIN  38  34  85 SE10      29.58F FOG
6HR MIN TEMP:  38; 6HR MAX TEMP:  39; 6HR PCP:  0.04;

MINNEAPOLIS    LGT RAIN  36  33  89 SE13      29.62F FOG
6HR MIN TEMP:  36; 6HR MAX TEMP:  37; 6HR PCP:  0.03;

$$

  *****  WEATHER ACROSS SOUTH DAKOTA  *****

CITY           SKY/WX    TMP DP  RH WIND       PRES   REMARKS
SIOUX FALLS    LGT RAIN  38  37  97 W5        29.42F FOG
6HR MIN TEMP:  38; 6HR MAX TEMP:  41; 6HR PCP:  0.09;

BROOKINGS      NOT AVBL
WATERTOWN      LGT RAIN  38  37  97 SE9       29.39F
6HR MIN TEMP:  36; 6HR MAX TEMP:  38; 6HR PCP:  0.01;

HURON          CLOUDY    33  30  88 NW8       29.42F
6HR MIN TEMP:  29; 6HR MAX TEMP:  33;

SISSETON         N/A     37  37 100 SE13      29.44F
ABERDEEN       CLOUDY    34  32  92 CALM      29.42F FOG
6HR MIN TEMP:  33; 6HR MAX TEMP:  34; 6HR PCP:  0.03;

MITCHELL       CLOUDY    37  35  92 W6        29.43F FOG
PIERRE         CLOUDY    37  32  82 NW23G29   29.45F
6HR MIN TEMP:  36; 6HR MAX TEMP:  38; 6HR PCP: TRACE;

MOBRIDGE       CLOUDY    32  30  92 N14       29.42S WCI  22
RAPID CITY     PTSUNNY   45  19  35 NW37G51   29.50F
6HR MIN TEMP:  40; 6HR MAX TEMP:  45;

$$

  *****  SOME WEATHER IN NEARBY STATES *****

CITY           SKY/WX    TMP DP  RH WIND       PRES   REMARKS
GLASGOW MT     CLOUDY    31  26  82 NW16      29.70R WCI  20
6HR MIN TEMP:  30; 6HR MAX TEMP:  32;

GREAT FALLS MT CLOUDY    37  24  59 W15       29.85R
6HR MIN TEMP:  28; 6HR MAX TEMP:  37;

CHEYENNE WY    CLOUDY    30  18  60 NW17G32   29.68F WCI  18
6HR MIN TEMP:  24; 6HR MAX TEMP:  31;

SCOTTSBLUFF NE SUNNY     38  25  59 W18       29.66F
6HR MIN TEMP:  31; 6HR MAX TEMP:  38;

OMAHA NE       LGT RAIN  42  41  96 SE13      29.47F FOG
6HR MIN TEMP:  42; 6HR MAX TEMP:  43; 6HR PCP:  0.25;

DES MOINES IA  LGT RAIN  41  38  89 SE13      29.55F FOG
6HR MIN TEMP:  40; 6HR MAX TEMP:  41; 6HR PCP:  0.12;

DAVENPORT IA   LGT RAIN  36  33  89 E15       29.66F FOG
6HR MIN TEMP:  35; 6HR MAX TEMP:  37; 6HR PCP:  0.02;

CHICAGO IL     LGT RAIN  35  31  85 E9        29.80F FOG
6HR MIN TEMP:  31; 6HR MAX TEMP:  36; 6HR PCP:  0.01;

EAU CLAIRE WI  CLOUDY    37  32  82 SE9       29.69F HAZE
6HR MIN TEMP:  35; 6HR MAX TEMP:  37;

LA CROSSE WI   CLOUDY    41  32  70 SE12      29.70F
6HR MIN TEMP:  37; 6HR MAX TEMP:  41;

$$

  *****  SOME NATIONAL WEATHER *****

CITY           SKY/WX    TMP DP  RH WIND       PRES   REMARKS
LA GUARDIA NY  CLOUDY    42  36  79 NE15      30.27S
6HR MIN TEMP:  36; 6HR MAX TEMP:  42;




USA.gov is the U.S. government's official web portal to all federal, state and local government web resources and services.